Погода в Бабаево

Россия / Вологодская область     59°23′21″N   35°56′15″E
темп.,
°C
ветер,
м/с
пор.,
м/с
влажн.,
%
обл.,
%
осадки,
мм/ч
давл.,
гПа
погр.,
м
18 апреля, вс
вс1800:00+4св310845 0.0 1029250
03:00+2св39895 0.0 1029184
06:00+2св310862 0.0 1029216
09:00+8всв475981 0.0 1029503
12:00+11всв4648100 0.0 10291409
15:00+11св5746100 0.0 10291499
18:00+9св4757100 0.0 10291321
21:00+5всв4973100 0.0 1031551
19 апреля, пн
пн1900:00+3св2882100 0.0 1031259
03:00+1св38845 0.0 1032199
06:000всв39815 0.0 1032269
09:00+5в47530 0.0 1032871
12:00+7в57371 0.0 10311448
15:00+9в46355 0.0 10311653
18:00+8в46415 0.0 10301608
21:00+3всв28624 0.0 1031173
20 апреля, вт
вт2000:00+1в29745 0.0 1030206
03:00−1в29823 0.0 1030197
06:00−1в310795 0.0 1030285
09:00+5в48445 0.0 1028931
12:00+8вюв5840100 0.0 10261528
15:00+8вюв5847100 0.0 10251526
18:00+7вюв41158100 0.0 10231387
21:00+6вюв41069100 0.0 1022861
21 апреля, ср
ср2100:00+5вюв3974100 0.3 1019819
03:00+4в41170100 0.3 1016603
06:00+3в51265100 0.0 1012775
09:00+1в51495100 2.3 1010804
12:00+1в51396100 2.1 1007737
15:00+2вюв51397100 2.4 1005783
18:00+1вюв41298100 3.8 1003477
21:00+1в31199100 7.0 1002659
22 апреля, чт
чт2200:00+3юв3699100 2.4 1002612
03:00+1зюз4798100 3.9 1003541
06:00+1юз4998100 0.8 1006763
09:00+1юз4997100 1.3 1009473
12:00+2юз3998100 0.4 1012494
15:00+2юз41098100 1.1 1015638
18:00+3зюз3895100 0.1 1017656
21:00+3ю259680 0.1 1019106